User: anonymous   Login
Location: Corralito
(14.1667°N, 87.1833°W)
Time: 11:57:42
(UTC+00:00)
Language:

Cosmos 2142 Rocket - Orbit

View from above orbital plane
View from above orbital plane
View from above satellite
View from above satellite

Ground track
Ground track

The orbit data is extracted from the following two-line orbital elements,

1 21231U 91029B   21125.81087648  .00000056  00000-0  42533-4 0  9995
2 21231  82.9489 137.7763 0034232 224.6546 308.5176 13.75832670508586
Epoch (UTC): 05 May 2021 19:27:39
Eccentricity: 0.0034232
inclination: 82.9489°
perigee height: 953 km
apogee height: 1004 km
right ascension of ascending node: 137.7763°
argument of perigee: 224.6546°
revolutions per day: 13.75832670
mean anomaly at epoch: 308.5176°
orbit number at epoch: 50858

The dashed part of the orbit path shows where the satellite is in the earth's shadow,  

DLR